Location: Poughquag
(41.6090°N, 73.6820°W)
Time: 03:40:38
(UTC-04:00)

Vanguard 2 Rocket - Pass Details

Date: 02 June 2020
Orbit: 556 x 3324 km, 32.9° (Epoch: 06 July)

Event Time Altitude Azimuth Distance (km) Brightness Sun altitude
Rises 20:17:38 0° 273° (W) 5,084 12.0 0.2°
Reaches altitude 10° 20:20:51 10° 265° (W) 4,432 11.4 -0.4°
Maximum altitude 20:32:23 37° 204° (SSW) 3,681 9.9 -2.2°
Drops below altitude 10° 20:48:49 10° 147° (SSE) 6,216 10.6 -4.7°
Enters shadow 20:52:38 - 142° (SE) 6,951 10.8 -5.3°
Sets 20:54:28 0° 140° (SE) 7,303 - -5.6°
